STARLINK-6121 (56129 NORAD) Tracking and Keplerian Element Data

This shows tracking and keplerian element data for the satellite.

Feedback or suggestion? Click here.




ElementValue
Catalog56129
NameSTARLINK-6121
Epoch Orbit656
Epoch Day127.07266176
Epoch Year2023
RAAN32.9374
Inclination43.0041
Eccentricity0.0001665
Argument of Perigee267.418
Mean Anonmoly92.6497
Mean Motion15.71336512
Decay Rate-5.023E-05
L11 56129U 23046AP 23127.07266176 -.00005023 00000+0 -34904-4 0 9993
L22 56129 43.0041 32.9374 0001665 267.4180 92.6497 15.71336512 6569



Live tracking and technical data element details for STARLINK-6121 (NORAD 56129). STARLINK-6121 can be tracked NOW for your location showing map with azimuth and elevation plus other details from your city location.







IsCatalogInMostPopularTable: catalog: 56129, numindb: 5
Update: records affected: 1



GetName: 56129 STARLINK-6121

Hit Count: updated at: Mon, 05 Jun 2023 00:20:26 GMT